Tracking 28902 objects as of 19-May-2024
HD Live streaming from Space Station
objects crossing your sky now

OBJECT W

Track OBJECT W now!
10-day predictions


NORAD ID: 51844
Int'l Code: 2022-019W
Perigee: 484.0 km
Apogee: 505.3 km
Inclination: 97.4 °
Period: 94.4 minutes
Semi major axis: 6865 km
RCS: Unknown
Launch date: February 27, 2022
Source: People's Republic of China (PRC)
Launch site: Wenchang Satellite Launch Center (WSC)
Your satellite tracking list
Your tracking list is empty




NASA's NSSDC Master Catalog

Two Line Element Set (TLE):
1 51844U 22019W   24140.51312199  .00027752  00000-0  10722-2 0  9995
2 51844  97.4324 214.7317 0015501 341.0527  19.0132 15.26104683122931
Source of the keplerian elements: AFSPC